Station Historical Data
Daily Summary for June 15, 2017 Units:  English    Metric   Both
« Previous Day
Next Day »
Daily Weekly Monthly Yearly Custom
  High: Low: Average:
Temperature: 82.4 °F 61.5 °F 71.1 °F
Dew Point: 71.1 °F 34.8 °F 58.7 °F
Humidity: 88% 35% 66%
Wind Speed: 9.0mph 0.0mph 2.8mph
Wind Gust: 14.0mph - -
Wind- - South
Pressure: 29.98 in 29.77 in -
Precipitation: 0.00 in    
Historical Graphs
 
 
Tabular Data for June 15, 2017
Time Temperature Dew Point Pressure Wind Wind Speed Wind Gust Humidity Rainfall Rate (Hourly)
00:04 63.2 °F 38.5 °F 29.98 in ENE 3.0 mph 7.0 mph 40% 0.00 in
00:09 63.3 °F 37.2 °F 29.98 in ENE 3.0 mph 7.0 mph 38% 0.00 in
00:14 63.3 °F 37.2 °F 29.97 in ENE 3.0 mph 6.0 mph 38% 0.00 in
00:19 63.3 °F 37.2 °F 29.97 in ENE 3.0 mph 7.0 mph 38% 0.00 in
00:24 63.2 °F 36.5 °F 29.97 in ENE 3.0 mph 7.0 mph 37% 0.00 in
00:29 63.3 °F 35.9 °F 29.97 in ENE 2.0 mph 7.0 mph 36% 0.00 in
00:34 63.4 °F 35.2 °F 29.96 in East 2.0 mph 5.0 mph 35% 0.00 in
00:39 63.4 °F 35.2 °F 29.96 in NE 2.0 mph 6.0 mph 35% 0.00 in
00:44 63.3 °F 35.2 °F 29.95 in East 3.0 mph 7.0 mph 35% 0.00 in
00:49 63.2 °F 35.1 °F 29.95 in ENE 3.0 mph 6.0 mph 35% 0.00 in
00:54 63.1 °F 35.0 °F 29.95 in ENE 3.0 mph 8.0 mph 35% 0.00 in
00:59 63.0 °F 34.9 °F 29.95 in ENE 3.0 mph 8.0 mph 35% 0.00 in
01:04 63.0 °F 34.9 °F 29.94 in East 3.0 mph 5.0 mph 35% 0.00 in
01:09 62.9 °F 34.8 °F 29.94 in East 2.0 mph 5.0 mph 35% 0.00 in
01:14 62.9 °F 34.8 °F 29.94 in East 2.0 mph 7.0 mph 35% 0.00 in
01:19 62.7 °F 36.0 °F 29.93 in East 2.0 mph 7.0 mph 37% 0.00 in
01:24 62.7 °F 36.0 °F 29.93 in East 2.0 mph 7.0 mph 37% 0.00 in
01:29 62.7 °F 36.7 °F 29.93 in ENE 2.0 mph 5.0 mph 38% 0.00 in
01:34 62.5 °F 37.2 °F 29.93 in ENE 2.0 mph 5.0 mph 39% 0.00 in
01:39 62.4 °F 37.7 °F 29.93 in ENE 3.0 mph 6.0 mph 40% 0.00 in
01:44 62.5 °F 37.2 °F 29.93 in NE 2.0 mph 6.0 mph 39% 0.00 in
01:49 62.5 °F 37.8 °F 29.93 in ENE 3.0 mph 7.0 mph 40% 0.00 in
01:54 62.5 °F 38.5 °F 29.93 in ENE 3.0 mph 7.0 mph 41% 0.00 in
01:59 62.6 °F 39.2 °F 29.92 in NE 2.0 mph 7.0 mph 42% 0.00 in
02:04 62.7 °F 39.3 °F 29.92 in ENE 2.0 mph 7.0 mph 42% 0.00 in
02:09 62.6 °F 39.8 °F 29.92 in ENE 2.0 mph 7.0 mph 43% 0.00 in
02:14 62.6 °F 40.4 °F 29.92 in ENE 2.0 mph 4.0 mph 44% 0.00 in
02:19 62.6 °F 40.4 °F 29.92 in ENE 1.0 mph 4.0 mph 44% 0.00 in
02:24 62.6 °F 40.9 °F 29.92 in ENE 2.0 mph 4.0 mph 45% 0.00 in
02:29 62.5 °F 40.9 °F 29.92 in ENE 1.0 mph 4.0 mph 45% 0.00 in
02:34 62.4 °F 40.8 °F 29.92 in NE 2.0 mph 4.0 mph 45% 0.00 in
02:39 62.4 °F 41.9 °F 29.92 in Calm   1.0 mph 47% 0.00 in
02:44 62.3 °F 41.8 °F 29.91 in East 1.0 mph 4.0 mph 47% 0.00 in
02:49 62.3 °F 41.8 °F 29.91 in ENE 2.0 mph 6.0 mph 47% 0.00 in
02:54 62.3 °F 41.8 °F 29.91 in ENE 2.0 mph 6.0 mph 47% 0.00 in
02:59 62.4 °F 42.4 °F 29.91 in ENE 1.0 mph 4.0 mph 48% 0.00 in
03:04 62.4 °F 42.4 °F 29.91 in ENE 1.0 mph 4.0 mph 48% 0.00 in
03:09 62.3 °F 42.9 °F 29.91 in ENE 3.0 mph 3.0 mph 49% 0.00 in
03:14 62.3 °F 43.4 °F 29.91 in NE 2.0 mph 5.0 mph 50% 0.00 in
03:19 62.4 °F 43.5 °F 29.91 in ENE 3.0 mph 4.0 mph 50% 0.00 in
03:24 62.6 °F 43.7 °F 29.90 in ENE 2.0 mph 5.0 mph 50% 0.00 in
03:29 62.6 °F 44.2 °F 29.90 in ENE 2.0 mph 5.0 mph 51% 0.00 in
03:34 62.8 °F 44.4 °F 29.90 in ENE 2.0 mph 8.0 mph 51% 0.00 in
03:39 62.9 °F 45.0 °F 29.90 in ENE 2.0 mph 8.0 mph 52% 0.00 in
03:44 63.0 °F 45.1 °F 29.90 in ENE 3.0 mph 4.0 mph 52% 0.00 in
03:49 63.1 °F 46.2 °F 29.90 in NE 2.0 mph 6.0 mph 54% 0.00 in
03:54 63.2 °F 46.3 °F 29.90 in ENE 2.0 mph 6.0 mph 54% 0.00 in
03:59 63.2 °F 46.3 °F 29.90 in NE 1.0 mph 5.0 mph 54% 0.00 in
04:04 63.3 °F 46.9 °F 29.90 in NE 1.0 mph 5.0 mph 55% 0.00 in
04:09 63.5 °F 47.0 °F 29.90 in NE 2.0 mph 3.0 mph 55% 0.00 in
04:14 63.6 °F 47.1 °F 29.90 in NE 1.0 mph 3.0 mph 55% 0.00 in
04:19 63.5 °F 47.5 °F 29.90 in Calm   1.0 mph 56% 0.00 in
04:24 63.6 °F 47.6 °F 29.90 in Calm   2.0 mph 56% 0.00 in
04:29 63.5 °F 47.5 °F 29.90 in Calm   2.0 mph 56% 0.00 in
04:34 63.4 °F 47.4 °F 29.90 in Calm   3.0 mph 56% 0.00 in
04:39 63.3 °F 46.9 °F 29.90 in NE 2.0 mph 5.0 mph 55% 0.00 in
04:44 63.1 °F 46.7 °F 29.90 in NE 2.0 mph 5.0 mph 55% 0.00 in
04:49 62.9 °F 46.5 °F 29.90 in NE 2.0 mph 6.0 mph 55% 0.00 in
04:54 62.5 °F 46.6 °F 29.90 in NE 3.0 mph 6.0 mph 56% 0.00 in
04:59 62.3 °F 46.9 °F 29.90 in NE 2.0 mph 6.0 mph 57% 0.00 in
05:04 62.0 °F 46.6 °F 29.90 in NE 2.0 mph 5.0 mph 57% 0.00 in
05:09 61.8 °F 46.4 °F 29.90 in NE 3.0 mph 5.0 mph 57% 0.00 in
05:14 61.7 °F 46.8 °F 29.90 in NE 3.0 mph 5.0 mph 58% 0.00 in
05:19 61.6 °F 47.1 °F 29.90 in NE 2.0 mph 6.0 mph 59% 0.00 in
05:24 61.5 °F 47.5 °F 29.90 in NE 2.0 mph 4.0 mph 60% 0.00 in
05:29 61.5 °F 47.9 °F 29.90 in NE 2.0 mph 4.0 mph 61% 0.00 in
05:34 61.6 °F 48.0 °F 29.89 in NE 1.0 mph 4.0 mph 61% 0.00 in
05:39 61.6 °F 48.4 °F 29.89 in NE 1.0 mph 4.0 mph 62% 0.00 in
05:44 61.9 °F 48.7 °F 29.89 in ENE 1.0 mph 4.0 mph 62% 0.00 in
05:49 62.0 °F 48.8 °F 29.89 in ENE 1.0 mph 4.0 mph 62% 0.00 in
05:54 62.1 °F 48.9 °F 29.89 in Calm     62% 0.00 in
05:59 62.2 °F 49.0 °F 29.89 in Calm     62% 0.00 in
06:04 62.4 °F 49.2 °F 29.89 in Calm     62% 0.00 in
06:09 62.6 °F 49.4 °F 29.88 in Calm   2.0 mph 62% 0.00 in
06:14 62.8 °F 49.6 °F 29.88 in ENE 1.0 mph 3.0 mph 62% 0.00 in
06:19 62.9 °F 49.7 °F 29.88 in NE 1.0 mph 3.0 mph 62% 0.00 in
06:24 63.1 °F 49.9 °F 29.88 in East 3.0 mph 5.0 mph 62% 0.00 in
06:29 63.3 °F 50.1 °F 29.88 in East 2.0 mph 5.0 mph 62% 0.00 in
06:34 63.5 °F 50.7 °F 29.88 in East 1.0 mph 5.0 mph 63% 0.00 in
06:39 63.8 °F 51.0 °F 29.87 in East 1.0 mph 3.0 mph 63% 0.00 in
06:44 64.0 °F 51.1 °F 29.87 in East 1.0 mph 3.0 mph 63% 0.00 in
06:49 64.3 °F 51.9 °F 29.87 in East 3.0 mph 3.0 mph 64% 0.00 in
06:54 64.5 °F 51.6 °F 29.87 in Calm   3.0 mph 63% 0.00 in
06:59 64.7 °F 52.2 °F 29.88 in Calm   2.0 mph 64% 0.00 in
07:04 64.8 °F 51.9 °F 29.87 in East 1.0 mph 4.0 mph 63% 0.00 in
07:09 65.1 °F 52.6 °F 29.87 in ESE 1.0 mph 4.0 mph 64% 0.00 in
07:14 65.1 °F 52.6 °F 29.87 in Calm   3.0 mph 64% 0.00 in
07:19 65.3 °F 52.8 °F 29.88 in Calm   2.0 mph 64% 0.00 in
07:24 65.5 °F 53.4 °F 29.88 in Calm     65% 0.00 in
07:29 65.7 °F 54.4 °F 29.86 in NE 4.0 mph 5.0 mph 67% 0.00 in
07:34 65.6 °F 54.8 °F 29.86 in ENE 2.0 mph 5.0 mph 68% 0.00 in
07:39 65.9 °F 55.0 °F 29.87 in ENE 2.0 mph 5.0 mph 68% 0.00 in
07:44 66.3 °F 55.4 °F 29.87 in ENE 1.0 mph 3.0 mph 68% 0.00 in
07:49 66.8 °F 55.5 °F 29.87 in ENE 1.0 mph 2.0 mph 67% 0.00 in
07:54 66.9 °F 55.6 °F 29.87 in Calm   2.0 mph 67% 0.00 in
07:59 67.1 °F 55.8 °F 29.87 in ENE 1.0 mph 4.0 mph 67% 0.00 in
08:04 67.1 °F 55.8 °F 29.87 in ENE 1.0 mph 4.0 mph 67% 0.00 in
08:09 67.3 °F 55.5 °F 29.87 in ENE 1.0 mph 4.0 mph 66% 0.00 in
08:14 67.6 °F 55.8 °F 29.88 in Calm   3.0 mph 66% 0.00 in
08:19 68.2 °F 56.0 °F 29.87 in Calm   3.0 mph 65% 0.00 in
08:24 68.5 °F 56.7 °F 29.87 in ENE 1.0 mph 3.0 mph 66% 0.00 in
08:29 68.4 °F 56.2 °F 29.87 in Calm   3.0 mph 65% 0.00 in
08:34 68.7 °F 57.3 °F 29.87 in ENE 1.0 mph 3.0 mph 67% 0.00 in
08:39 69.4 °F 57.5 °F 29.87 in Calm   3.0 mph 66% 0.00 in
08:44 70.6 °F 59.1 °F 29.86 in ENE 1.0 mph 2.0 mph 67% 0.00 in
08:49 70.8 °F 58.0 °F 29.86 in ESE 1.0 mph 3.0 mph 64% 0.00 in
08:54 70.7 °F 58.4 °F 29.87 in ESE 1.0 mph 2.0 mph 65% 0.00 in
08:59 70.9 °F 58.5 °F 29.86 in ESE 1.0 mph 2.0 mph 65% 0.00 in
09:04 70.8 °F 58.9 °F 29.86 in ESE 1.0 mph 3.0 mph 66% 0.00 in
09:09 70.9 °F 59.0 °F 29.87 in Calm   3.0 mph 66% 0.00 in
09:14 71.1 °F 59.2 °F 29.87 in SE 1.0 mph 6.0 mph 66% 0.00 in
09:19 71.0 °F 59.1 °F 29.87 in SSE 2.0 mph 6.0 mph 66% 0.00 in
09:24 71.1 °F 60.0 °F 29.87 in SSE 1.0 mph 4.0 mph 68% 0.00 in
09:29 71.1 °F 60.8 °F 29.87 in Calm   4.0 mph 70% 0.00 in
09:34 71.3 °F 61.4 °F 29.87 in SSE 1.0 mph 4.0 mph 71% 0.00 in
09:39 71.5 °F 62.0 °F 29.87 in SW 1.0 mph 4.0 mph 72% 0.00 in
09:44 71.6 °F 62.1 °F 29.88 in WSW 3.0 mph 3.0 mph 72% 0.00 in
09:49 71.5 °F 62.8 °F 29.88 in Calm   6.0 mph 74% 0.00 in
09:54 70.9 °F 63.0 °F 29.89 in WSW 1.0 mph 7.0 mph 76% 0.00 in
09:59 70.3 °F 63.1 °F 29.88 in Calm   3.0 mph 78% 0.01 in
10:04 69.7 °F 62.9 °F 29.88 in Calm   3.0 mph 79% 0.01 in
10:09 69.2 °F 63.5 °F 29.88 in Calm   2.0 mph 82% 0.04 in
10:14 68.6 °F 63.2 °F 29.88 in Calm   2.0 mph 83% 0.05 in
10:19 68.2 °F 63.2 °F 29.87 in Calm     84% 0.07 in
10:24 68.2 °F 63.5 °F 29.86 in Calm     85% 0.08 in
10:29 68.2 °F 63.9 °F 29.86 in Calm     86% 0.08 in
10:34 68.5 °F 64.8 °F 29.87 in Calm     88% 0.08 in
10:39 69.1 °F 65.4 °F 29.87 in Calm     88% 0.08 in
10:44 69.8 °F 66.1 °F 29.86 in Calm     88% 0.09 in
10:49 70.7 °F 67.0 °F 29.86 in Calm   2.0 mph 88% 0.09 in
10:54 71.1 °F 67.0 °F 29.86 in Calm   3.0 mph 87% 0.09 in
10:59 71.4 °F 67.3 °F 29.86 in SSE 2.0 mph 3.0 mph 87% 0.08 in
11:04 71.6 °F 67.2 °F 29.85 in SSE 1.0 mph 3.0 mph 86% 0.08 in
11:09 72.1 °F 67.7 °F 29.86 in South 1.0 mph 3.0 mph 86% 0.05 in
11:14 74.0 °F 68.9 °F 29.85 in South 1.0 mph 3.0 mph 84% 0.04 in
11:19 75.1 °F 69.2 °F 29.85 in SW 1.0 mph 3.0 mph 82% 0.02 in
11:24 75.9 °F 68.9 °F 29.85 in SSE 3.0 mph 6.0 mph 79% 0.01 in
11:29 76.7 °F 69.3 °F 29.85 in SSE 3.0 mph 5.0 mph 78% 0.01 in
11:34 76.7 °F 68.2 °F 29.85 in WSW 2.0 mph 6.0 mph 75% 0.01 in
11:39 77.4 °F 69.2 °F 29.85 in SSW 4.0 mph 8.0 mph 76% 0.01 in
11:44 77.9 °F 69.7 °F 29.85 in SSW 3.0 mph 8.0 mph 76% 0.00 in
11:49 78.3 °F 69.7 °F 29.85 in SW 3.0 mph 8.0 mph 75% 0.00 in
11:54 79.4 °F 70.4 °F 29.85 in SSW 3.0 mph 8.0 mph 74% 0.00 in
11:59 80.1 °F 71.1 °F 29.85 in SW 2.0 mph 6.0 mph 74% 0.00 in
12:04 80.6 °F 70.7 °F 29.85 in SSW 5.0 mph 7.0 mph 72% 0.00 in
12:09 80.5 °F 70.2 °F 29.85 in SSW 1.0 mph 6.0 mph 71% 0.00 in
12:14 81.7 °F 71.0 °F 29.84 in SW 5.0 mph 7.0 mph 70% 0.00 in
12:19 81.3 °F 69.7 °F 29.84 in SW 5.0 mph 10.0 mph 68% 0.00 in
12:24 81.1 °F 69.1 °F 29.84 in West 1.0 mph 11.0 mph 67% 0.00 in
12:29 82.4 °F 69.0 °F 29.84 in West 8.0 mph 10.0 mph 64% 0.00 in
12:34 82.2 °F 68.3 °F 29.84 in SSW 9.0 mph 12.0 mph 63% 0.00 in
12:39 81.4 °F 68.1 °F 29.84 in WSW 6.0 mph 13.0 mph 64% 0.00 in
12:44 81.0 °F 68.6 °F 29.83 in SW 6.0 mph 13.0 mph 66% 0.00 in
12:49 81.4 °F 68.9 °F 29.83 in WSW 6.0 mph 12.0 mph 66% 0.00 in
12:54 82.2 °F 69.7 °F 29.83 in WSW 5.0 mph 12.0 mph 66% 0.00 in
12:59 82.0 °F 69.1 °F 29.83 in West 6.0 mph 12.0 mph 65% 0.00 in
13:04 82.2 °F 69.3 °F 29.83 in West 6.0 mph 12.0 mph 65% 0.00 in
13:09 82.3 °F 68.9 °F 29.83 in West 2.0 mph 10.0 mph 64% 0.00 in
13:14 81.8 °F 69.3 °F 29.83 in WSW 7.0 mph 10.0 mph 66% 0.00 in
13:19 81.1 °F 69.1 °F 29.83 in West 9.0 mph 13.0 mph 67% 0.00 in
13:24 81.8 °F 68.9 °F 29.83 in West 3.0 mph 11.0 mph 65% 0.00 in
13:29 82.2 °F 69.7 °F 29.82 in SW 4.0 mph 10.0 mph 66% 0.00 in
13:34 82.1 °F 68.7 °F 29.83 in WSW 5.0 mph 10.0 mph 64% 0.00 in
13:39 81.8 °F 68.4 °F 29.83 in WSW 5.0 mph 10.0 mph 64% 0.00 in
13:44 82.2 °F 69.3 °F 29.83 in West 5.0 mph 13.0 mph 65% 0.00 in
13:49 82.2 °F 68.3 °F 29.83 in WSW 6.0 mph 13.0 mph 63% 0.00 in
13:54 81.7 °F 67.9 °F 29.82 in WSW 6.0 mph 14.0 mph 63% 0.00 in
13:59 81.2 °F 68.8 °F 29.82 in WSW 7.0 mph 14.0 mph 66% 0.00 in
14:04 81.7 °F 67.9 °F 29.82 in WSW 6.0 mph 13.0 mph 63% 0.00 in
14:09 81.6 °F 67.8 °F 29.82 in WSW 6.0 mph 13.0 mph 63% 0.00 in
14:14 82.3 °F 68.4 °F 29.82 in WSW 7.0 mph 10.0 mph 63% 0.00 in
14:19 82.0 °F 68.2 °F 29.82 in SW 6.0 mph 13.0 mph 63% 0.00 in
14:24 81.7 °F 68.3 °F 29.82 in West 7.0 mph 11.0 mph 64% 0.00 in
14:29 81.7 °F 68.3 °F 29.82 in SW 5.0 mph 11.0 mph 64% 0.00 in
14:34 81.5 °F 67.7 °F 29.82 in WNW 6.0 mph 11.0 mph 63% 0.00 in
14:39 81.9 °F 68.5 °F 29.82 in WSW 6.0 mph 11.0 mph 64% 0.00 in
14:44 81.4 °F 68.1 °F 29.81 in WSW 6.0 mph 13.0 mph 64% 0.00 in
14:49 81.6 °F 68.7 °F 29.81 in WSW 6.0 mph 13.0 mph 65% 0.00 in
14:54 82.0 °F 67.7 °F 29.81 in WSW 5.0 mph 10.0 mph 62% 0.00 in
14:59 81.2 °F 67.9 °F 29.80 in SW 4.0 mph 10.0 mph 64% 0.00 in
15:04 81.4 °F 68.5 °F 29.80 in West 6.0 mph 9.0 mph 65% 0.00 in
15:09 81.4 °F 68.1 °F 29.80 in West 6.0 mph 10.0 mph 64% 0.00 in
15:14 80.7 °F 67.4 °F 29.80 in WSW 5.0 mph 12.0 mph 64% 0.00 in
15:19 81.1 °F 68.2 °F 29.80 in WSW 5.0 mph 12.0 mph 65% 0.00 in
15:24 81.3 °F 68.0 °F 29.80 in WSW 5.0 mph 9.0 mph 64% 0.00 in
15:29 80.9 °F 68.0 °F 29.80 in SW 5.0 mph 11.0 mph 65% 0.00 in
15:34 80.7 °F 67.8 °F 29.80 in West 2.0 mph 14.0 mph 65% 0.00 in
15:39 80.7 °F 67.8 °F 29.80 in SW 4.0 mph 8.0 mph 65% 0.00 in
15:44 81.3 °F 68.9 °F 29.80 in WSW 4.0 mph 9.0 mph 66% 0.00 in
15:49 81.1 °F 68.7 °F 29.79 in WSW 4.0 mph 9.0 mph 66% 0.00 in
15:54 81.9 °F 68.5 °F 29.79 in WSW 3.0 mph 8.0 mph 64% 0.00 in
15:59 81.4 °F 67.6 °F 29.79 in WNW 4.0 mph 11.0 mph 63% 0.00 in
16:04 81.7 °F 67.9 °F 29.79 in SW 6.0 mph 11.0 mph 63% 0.00 in
16:09 81.7 °F 68.8 °F 29.78 in WSW 5.0 mph 10.0 mph 65% 0.00 in
16:14 80.7 °F 67.4 °F 29.78 in WSW 5.0 mph 10.0 mph 64% 0.00 in
16:19 80.5 °F 67.6 °F 29.78 in WSW 5.0 mph 10.0 mph 65% 0.00 in
16:24 80.8 °F 67.9 °F 29.77 in WSW 4.0 mph 10.0 mph 65% 0.00 in
16:29 81.3 °F 68.4 °F 29.78 in West 4.0 mph 9.0 mph 65% 0.00 in
16:34 81.0 °F 68.1 °F 29.77 in West 5.0 mph 9.0 mph 65% 0.00 in
16:39 79.6 °F 66.8 °F 29.78 in West 3.0 mph 10.0 mph 65% 0.00 in
16:44 79.0 °F 67.1 °F 29.78 in WSW 5.0 mph 10.0 mph 67% 0.00 in
16:49 78.8 °F 68.2 °F 29.77 in South 5.0 mph 9.0 mph 70% 0.00 in
16:54 79.4 °F 67.9 °F 29.78 in SW 5.0 mph 8.0 mph 68% 0.00 in
16:59 79.2 °F 67.7 °F 29.78 in WSW 3.0 mph 9.0 mph 68% 0.00 in
17:04 78.7 °F 67.2 °F 29.77 in WSW 7.0 mph 10.0 mph 68% 0.00 in
17:09 77.5 °F 66.9 °F 29.77 in North 5.0 mph 11.0 mph 70% 0.00 in
17:14 77.2 °F 67.5 °F 29.77 in SW 6.0 mph 11.0 mph 72% 0.00 in
17:19 76.3 °F 66.6 °F 29.77 in SW 5.0 mph 11.0 mph 72% 0.00 in
17:24 75.6 °F 66.7 °F 29.78 in SW 5.0 mph 11.0 mph 74% 0.00 in
17:29 75.1 °F 66.6 °F 29.78 in SW 4.0 mph 9.0 mph 75% 0.00 in
17:34 75.1 °F 66.6 °F 29.78 in WSW 5.0 mph 9.0 mph 75% 0.00 in
17:39 75.0 °F 66.5 °F 29.78 in South 6.0 mph 10.0 mph 75% 0.00 in
17:44 74.7 °F 66.6 °F 29.78 in WSW 4.0 mph 10.0 mph 76% 0.00 in
17:49 74.2 °F 66.1 °F 29.78 in SW 7.0 mph 8.0 mph 76% 0.00 in
17:54 74.0 °F 66.3 °F 29.78 in West 4.0 mph 8.0 mph 77% 0.00 in
17:59 73.8 °F 66.1 °F 29.78 in SW 4.0 mph 9.0 mph 77% 0.00 in
18:04 74.0 °F 66.3 °F 29.78 in WSW 4.0 mph 7.0 mph 77% 0.00 in
18:09 74.0 °F 66.0 °F 29.78 in WSW 1.0 mph 7.0 mph 76% 0.00 in
18:14 74.0 °F 66.0 °F 29.78 in SW 4.0 mph 8.0 mph 76% 0.00 in
18:19 74.0 °F 66.0 °F 29.79 in SW 4.0 mph 10.0 mph 76% 0.00 in
18:24 74.0 °F 66.0 °F 29.79 in SW 4.0 mph 10.0 mph 76% 0.00 in
18:29 73.9 °F 65.9 °F 29.79 in SW 4.0 mph 7.0 mph 76% 0.00 in
18:34 73.6 °F 65.9 °F 29.79 in WSW 5.0 mph 8.0 mph 77% 0.00 in
18:39 73.1 °F 65.5 °F 29.79 in SW 2.0 mph 10.0 mph 77% 0.00 in
18:44 73.0 °F 65.4 °F 29.79 in SW 4.0 mph 10.0 mph 77% 0.00 in
18:49 73.1 °F 65.5 °F 29.79 in SW 4.0 mph 10.0 mph 77% 0.00 in
18:54 73.0 °F 65.7 °F 29.79 in SSW 4.0 mph 10.0 mph 78% 0.00 in
18:59 73.1 °F 65.5 °F 29.78 in SSW 3.0 mph 8.0 mph 77% 0.00 in
19:04 73.2 °F 65.6 °F 29.78 in SW 3.0 mph 7.0 mph 77% 0.00 in
19:09 73.3 °F 65.7 °F 29.78 in SW 6.0 mph 8.0 mph 77% 0.00 in
19:14 73.4 °F 65.0 °F 29.78 in SSW 3.0 mph 8.0 mph 75% 0.00 in
19:19 73.7 °F 65.3 °F 29.78 in SSW 3.0 mph 6.0 mph 75% 0.00 in
19:24 73.9 °F 65.1 °F 29.78 in SW 3.0 mph 4.0 mph 74% 0.00 in
19:29 74.3 °F 65.5 °F 29.78 in WSW 4.0 mph 5.0 mph 74% 0.00 in
19:34 74.5 °F 65.7 °F 29.78 in WSW 3.0 mph 4.0 mph 74% 0.00 in
19:39 74.6 °F 65.4 °F 29.78 in West 1.0 mph 6.0 mph 73% 0.00 in
19:44 74.6 °F 65.4 °F 29.78 in SW 2.0 mph 6.0 mph 73% 0.00 in
19:49 74.8 °F 65.6 °F 29.78 in SW 2.0 mph 5.0 mph 73% 0.00 in
19:54 74.9 °F 65.3 °F 29.79 in WSW 2.0 mph 7.0 mph 72% 0.00 in
19:59 74.8 °F 65.2 °F 29.79 in West 4.0 mph 8.0 mph 72% 0.00 in
20:04 74.5 °F 65.3 °F 29.79 in WSW 3.0 mph 6.0 mph 73% 0.00 in
20:09 74.3 °F 65.1 °F 29.79 in SW 4.0 mph 7.0 mph 73% 0.00 in
20:14 74.3 °F 65.5 °F 29.79 in WSW 4.0 mph 7.0 mph 74% 0.00 in
20:19 74.0 °F 65.2 °F 29.79 in SW 5.0 mph 9.0 mph 74% 0.00 in
20:24 73.9 °F 65.1 °F 29.79 in SW 4.0 mph 7.0 mph 74% 0.00 in
20:29 73.8 °F 65.0 °F 29.79 in SSW 2.0 mph 7.0 mph 74% 0.00 in
20:34 73.7 °F 65.3 °F 29.79 in SSW 3.0 mph 6.0 mph 75% 0.00 in
20:39 73.8 °F 65.4 °F 29.79 in WSW 3.0 mph 6.0 mph 75% 0.00 in
20:44 73.6 °F 64.8 °F 29.79 in SW 3.0 mph 7.0 mph 74% 0.00 in
20:49 73.6 °F 65.2 °F 29.79 in SW 4.0 mph 7.0 mph 75% 0.00 in
20:54 73.5 °F 65.1 °F 29.79 in WSW 4.0 mph 7.0 mph 75% 0.00 in
20:59 73.4 °F 65.0 °F 29.79 in SW 3.0 mph 8.0 mph 75% 0.00 in
21:04 73.2 °F 65.2 °F 29.79 in WSW 4.0 mph 7.0 mph 76% 0.00 in
21:09 72.8 °F 65.2 °F 29.79 in West 4.0 mph 6.0 mph 77% 0.00 in
21:14 72.4 °F 64.8 °F 29.80 in WSW 3.0 mph 6.0 mph 77% 0.00 in
21:19 72.0 °F 64.8 °F 29.80 in WSW 3.0 mph 6.0 mph 78% 0.00 in
21:24 71.7 °F 64.5 °F 29.80 in WSW 3.0 mph 7.0 mph 78% 0.00 in
21:29 71.5 °F 64.6 °F 29.80 in SW 2.0 mph 6.0 mph 79% 0.00 in
21:34 71.4 °F 64.9 °F 29.80 in WSW 3.0 mph 6.0 mph 80% 0.00 in
21:39 71.4 °F 64.9 °F 29.80 in WSW 2.0 mph 5.0 mph 80% 0.00 in
21:44 71.5 °F 65.0 °F 29.81 in SW 2.0 mph 6.0 mph 80% 0.00 in
21:49 71.5 °F 64.6 °F 29.80 in SW 2.0 mph 7.0 mph 79% 0.00 in
21:54 71.6 °F 64.7 °F 29.80 in SW 3.0 mph 7.0 mph 79% 0.00 in
21:59 71.6 °F 64.7 °F 29.81 in WSW 4.0 mph 10.0 mph 79% 0.00 in
22:04 71.5 °F 64.6 °F 29.81 in WSW 2.0 mph 4.0 mph 79% 0.00 in
22:09 71.3 °F 64.8 °F 29.81 in SW 2.0 mph 7.0 mph 80% 0.00 in
22:14 71.1 °F 65.0 °F 29.81 in SW 3.0 mph 7.0 mph 81% 0.00 in
22:19 70.9 °F 64.8 °F 29.81 in SW 3.0 mph 5.0 mph 81% 0.00 in
22:24 70.7 °F 64.9 °F 29.80 in WSW 3.0 mph 6.0 mph 82% 0.00 in
22:29 70.6 °F 64.8 °F 29.80 in SW 3.0 mph 6.0 mph 82% 0.00 in
22:34 70.4 °F 65.0 °F 29.81 in SW 3.0 mph 10.0 mph 83% 0.00 in
22:39 70.3 °F 64.9 °F 29.81 in SW 4.0 mph 7.0 mph 83% 0.00 in
22:44 70.2 °F 64.8 °F 29.81 in SW 3.0 mph 7.0 mph 83% 0.00 in
22:49 70.1 °F 65.0 °F 29.81 in SW 3.0 mph 6.0 mph 84% 0.00 in
22:54 70.0 °F 64.9 °F 29.81 in SW 4.0 mph 7.0 mph 84% 0.00 in
22:59 70.0 °F 64.9 °F 29.81 in SW 2.0 mph 6.0 mph 84% 0.00 in
23:04 69.9 °F 64.8 °F 29.80 in SW 7.0 mph 7.0 mph 84% 0.00 in
23:09 69.8 °F 64.7 °F 29.80 in SSW 3.0 mph 6.0 mph 84% 0.00 in
23:14 69.7 °F 64.6 °F 29.80 in SW 3.0 mph 7.0 mph 84% 0.00 in
23:19 69.5 °F 64.8 °F 29.80 in SW 2.0 mph 6.0 mph 85% 0.00 in
23:24 69.4 °F 64.7 °F 29.80 in SW 2.0 mph 6.0 mph 85% 0.00 in
23:29 69.3 °F 64.9 °F 29.80 in SW 2.0 mph 5.0 mph 86% 0.00 in
23:34 69.2 °F 64.8 °F 29.80 in SW 2.0 mph 6.0 mph 86% 0.00 in
23:39 69.1 °F 64.7 °F 29.80 in SW 3.0 mph 6.0 mph 86% 0.00 in
23:44 69.0 °F 64.6 °F 29.80 in SW 2.0 mph 6.0 mph 86% 0.00 in
23:49 68.8 °F 64.4 °F 29.81 in SSW 3.0 mph 5.0 mph 86% 0.00 in
23:54 68.8 °F 64.8 °F 29.80 in SW 2.0 mph 4.0 mph 87% 0.00 in
23:59 68.7 °F 64.7 °F 29.80 in SSW 1.0 mph 6.0 mph 87% 0.00 in
Buffalo, New York, USA
Compliments of Weather Underground - 2.5 mb